Simultaneous Nadir Overpasses (SNOs) Predictions

Prediction of SNOs between AQUA and METOP-A Satellite Orbit:

Table of predicted SNOs for the next 14.0 days since TLE Epoch: 4/15/2014
Index Date (AQUA) Time (AQUA) Lat,Lon (AQUA) SZA (AQUA ) Date (METOP-A) Time (METOP-A) Lat,Lon (METOP-A) SZA (METOP-A ) Distance(km) Time Diff (sec)
1 04/15/2014 22:56:39 -73.92, 10.06 116.08 04/15/2014 22:56:01 -73.91, 10.12 116.10 2.75 38
2 04/15/2014 23:46:08 73.99, 177.54 63.98 04/15/2014 23:46:39 73.99, 177.65 63.97 3.32 31
3 04/18/2014 18:30:51 -73.90, 76.55 117.10 04/18/2014 18:30:25 -73.91, 76.54 117.08 1.55 26
4 04/18/2014 19:20:20 73.97,-115.97 62.97 04/18/2014 19:21:03 73.99,-115.93 62.98 2.67 43
5 04/21/2014 13:15:27 73.33, -23.42 61.34 04/21/2014 13:14:20 73.31, -25.77 61.41 75.23 67
6 04/21/2014 14:05:04 -73.93, 142.93 118.04 04/21/2014 14:04:50 -73.91, 142.95 118.05 1.87 14
7 04/21/2014 14:54:33 74.01, -49.60 62.04 04/21/2014 14:55:28 73.99, -49.52 62.01 2.98 55
8 04/24/2014 08:49:48 73.84, 41.95 60.93 04/24/2014 08:48:35 73.81, 41.77 60.92 6.52 73
9 04/24/2014 09:39:15 -73.91,-150.57 119.00 04/24/2014 09:39:15 -73.91,-150.66 119.00 2.69 0
10 04/24/2014 10:28:44 73.99, 16.88 61.08 04/24/2014 10:29:53 73.99, 16.87 61.06 0.85 69
11 04/27/2014 04:23:58 73.87, 108.32 60.06 04/27/2014 04:22:57 73.89, 108.38 60.08 2.49 61
12 04/27/2014 05:13:25 -73.95, -84.20 119.88 04/27/2014 05:13:38 -73.94, -84.17 119.89 1.09 13




NCC Satellite Simultaneous Nadir Overpasses (SNOs) Prediction Service
